Flag for United Kingdom Weather past 2 weeks in Norwich, England, United Kingdom

Now
68 °F

Sunny.


Feels Like: 68 °F
Forecast: 60 / 74 °F
Wind: 8 mph from Northeast

Location: Norwich Weather Centre

Current Time: Jul 23, 2014 at 9:27:48 PM

Latest Report: Jul 23, 2014 at 8:50 PM


Visibility: 10 mi

Pressure: 30.12 "Hg

Humidity: 69%

Dew point: 57 °F

Location of NorwichLocation

Historic Weather in Norwich — Graph

°F

Norwich temperature yesterday

Maximum temperature yesterday: 66 °F (at 1:20 PM)
Minimum temperature yesterday: 59 °F (at 4:20 AM)
Average temperature yesterday: 62 °F

Past Weeks' High & Low Weather Summary

 TemperatureHumidityPressure
High81 °F (Jul 18, 5:20 PM)100% (Jul 10, 8:50 PM)30.24 "Hg (Jul 10, 8:50 PM)
Low52 °F (Jul 16, 4:20 AM)47% (Jul 14, 4:20 PM)29.68 "Hg (Jul 13, 1:50 PM)
Average65 °F85%29.99 "Hg
* Reported Jul 8 8:20 PM — Jul 23 8:20 PM, Norwich, Weather by CustomWeather, © 2014

Note: Actual official high and low records may vary slightly from our data, if they occured in-between our weather recording intervals... More about our weather records

Advertising

Norwich weather history for previous 24 hours

 ConditionsComfort  
Time TempWeatherWind HumidityBarometerVisibility
8:20 PM
Jul 23
70 °FSunny.8 mph60%30.12 "Hg10 mi
7:50 PM72 °FSunny.10 mph57%30.12 "Hg10 mi
7:20 PM72 °FSunny.13 mph53%30.12 "Hg10 mi
6:50 PM73 °FSunny.15 mph53%30.12 "Hg10 mi
6:20 PM75 °FSunny.15 mph50%30.12 "Hg10 mi
5:50 PM75 °FSunny.15 mph54%30.12 "Hg10 mi
5:20 PM77 °FSunny.16 mph54%30.12 "Hg10 mi
4:50 PM77 °FSunny.15 mph57%30.12 "Hg10 mi
4:20 PM77 °FSunny.14 mph61%30.12 "Hg10 mi
3:50 PM77 °FPassing clouds.16 mph61%30.12 "HgN/A
3:20 PM77 °FPassing clouds.13 mph61%30.15 "HgN/A
2:50 PM77 °FPassing clouds.15 mph61%30.15 "HgN/A
2:20 PM75 °FPassing clouds.14 mph65%30.15 "HgN/A
1:50 PM77 °FPassing clouds.13 mph61%30.15 "HgN/A
1:20 PM77 °FPassing clouds.13 mph61%30.15 "HgN/A
12:50 PM75 °FPassing clouds.13 mph65%30.15 "HgN/A
12:20 PM75 °FPassing clouds.12 mph69%30.15 "HgN/A
11:50 AM75 °FPassing clouds.12 mph69%30.15 "HgN/A
11:20 AM73 °FPassing clouds.12 mph74%30.15 "HgN/A
10:50 AM73 °FPassing clouds.12 mph74%30.18 "HgN/A
10:20 AM72 °FPassing clouds.12 mph78%30.18 "HgN/A
9:50 AM72 °FPassing clouds.13 mph73%30.18 "HgN/A
9:20 AM70 °FPassing clouds.12 mph78%30.18 "HgN/A
7:50 AM66 °FPassing clouds.8 mph88%30.18 "HgN/A
6:50 AM63 °FClear.8 mph100%30.18 "Hg6 mi
6:20 AM61 °FClear.6 mph100%30.18 "Hg4 mi
5:50 AM61 °FCool.6 mph100%30.18 "Hg4 mi
5:20 AM59 °FFog.7 mph100%30.18 "Hg3 mi
4:50 AM59 °FRain. Overcast.6 mph100%30.21 "Hg3 mi
4:20 AM59 °FFog.6 mph100%30.21 "Hg2 mi
3:50 AM59 °FFog.7 mph100%30.21 "Hg2 mi
3:20 AM59 °FFog.6 mph100%30.21 "Hg2 mi
2:50 AM59 °FFog.7 mph100%30.21 "Hg2 mi
2:20 AM61 °FFog.6 mph94%30.21 "Hg2 mi
1:50 AM61 °FFog.6 mph94%30.24 "Hg2 mi
1:20 AM61 °FFog.6 mph100%30.24 "Hg2 mi
12:50 AM61 °FFog.7 mph100%30.24 "Hg1 mi
Weather by CustomWeather, © 2014

See weather overviewHow to use our weather pages